#datetime,building,power
2023-11-20T00:00:00,mcc,35.03
2023-11-20T00:01:00,mcc,31.63
2023-11-20T00:02:00,mcc,30.82
2023-11-20T00:03:00,mcc,34.89
2023-11-20T00:04:00,mcc,33.35
2023-11-20T00:05:00,mcc,33.43
2023-11-20T00:06:00,mcc,35.37
2023-11-20T00:07:00,mcc,45.60
2023-11-20T00:08:00,mcc,33.60
2023-11-20T00:09:00,mcc,35.35
2023-11-20T00:10:00,mcc,34.19
2023-11-20T00:11:00,mcc,32.53
2023-11-20T00:12:00,mcc,34.86
2023-11-20T00:13:00,mcc,34.28
2023-11-20T00:14:00,mcc,33.57
2023-11-20T00:15:00,mcc,34.94
2023-11-20T00:16:00,mcc,33.97
2023-11-20T00:17:00,mcc,31.84
2023-11-20T00:18:00,mcc,31.80
2023-11-20T00:19:00,mcc,31.94
2023-11-20T00:20:00,mcc,33.47
2023-11-20T00:21:00,mcc,33.58
2023-11-20T00:22:00,mcc,33.07
2023-11-20T00:23:00,mcc,33.70
2023-11-20T00:24:00,mcc,29.95
2023-11-20T00:25:00,mcc,29.44
2023-11-20T00:26:00,mcc,29.34
2023-11-20T00:27:00,mcc,28.89
2023-11-20T00:28:00,mcc,30.79
2023-11-20T00:29:00,mcc,32.74
2023-11-20T00:30:00,mcc,31.22
2023-11-20T00:31:00,mcc,33.70
2023-11-20T00:32:00,mcc,32.05
2023-11-20T00:33:00,mcc,32.73
2023-11-20T00:34:00,mcc,35.28
2023-11-20T00:35:00,mcc,32.85
2023-11-20T00:36:00,mcc,33.57
2023-11-20T00:37:00,mcc,36.01
2023-11-20T00:38:00,mcc,33.59
2023-11-20T00:39:00,mcc,33.81
2023-11-20T00:40:00,mcc,35.71
2023-11-20T00:41:00,mcc,34.33
2023-11-20T00:42:00,mcc,35.21
2023-11-20T00:43:00,mcc,32.24
2023-11-20T00:44:00,mcc,29.28
2023-11-20T00:45:00,mcc,30.50
2023-11-20T00:46:00,mcc,32.94
2023-11-20T00:47:00,mcc,33.34
2023-11-20T00:48:00,mcc,35.33
2023-11-20T00:49:00,mcc,31.68
2023-11-20T00:50:00,mcc,32.27
2023-11-20T00:51:00,mcc,33.28
2023-11-20T00:52:00,mcc,46.09
2023-11-20T00:53:00,mcc,31.02
2023-11-20T00:54:00,mcc,32.92
2023-11-20T00:55:00,mcc,32.24
2023-11-20T00:56:00,mcc,31.49
2023-11-20T00:57:00,mcc,30.09
2023-11-20T00:58:00,mcc,30.77
2023-11-20T00:59:00,mcc,31.64
2023-11-20T01:00:00,mcc,33.19
2023-11-20T01:01:00,mcc,32.43
2023-11-20T01:02:00,mcc,36.01
2023-11-20T01:03:00,mcc,39.68
2023-11-20T01:04:00,mcc,32.55
2023-11-20T01:05:00,mcc,33.29
2023-11-20T01:06:00,mcc,32.87
2023-11-20T01:07:00,mcc,32.73
2023-11-20T01:08:00,mcc,31.74
2023-11-20T01:09:00,mcc,35.26
2023-11-20T01:10:00,mcc,30.91
2023-11-20T01:11:00,mcc,33.43
2023-11-20T01:12:00,mcc,32.28
2023-11-20T01:13:00,mcc,33.92
2023-11-20T01:14:00,mcc,32.31
2023-11-20T01:15:00,mcc,32.08
2023-11-20T01:16:00,mcc,31.47
2023-11-20T01:17:00,mcc,30.68
2023-11-20T01:18:00,mcc,30.95
2023-11-20T01:19:00,mcc,32.02
2023-11-20T01:20:00,mcc,37.93
2023-11-20T01:21:00,mcc,34.87
2023-11-20T01:22:00,mcc,33.43
2023-11-20T01:23:00,mcc,31.91
2023-11-20T01:24:00,mcc,34.17
2023-11-20T01:25:00,mcc,33.63
2023-11-20T01:26:00,mcc,36.29
2023-11-20T01:27:00,mcc,34.91
2023-11-20T01:28:00,mcc,34.96
2023-11-20T01:29:00,mcc,40.46
2023-11-20T01:30:00,mcc,37.26
2023-11-20T01:31:00,mcc,35.25
2023-11-20T01:32:00,mcc,36.84
2023-11-20T01:33:00,mcc,33.20
2023-11-20T01:34:00,mcc,34.76
2023-11-20T01:35:00,mcc,34.10
2023-11-20T01:36:00,mcc,31.20
2023-11-20T01:37:00,mcc,42.05
2023-11-20T01:38:00,mcc,32.39
2023-11-20T01:39:00,mcc,30.43
2023-11-20T01:40:00,mcc,30.90
2023-11-20T01:41:00,mcc,32.02
2023-11-20T01:42:00,mcc,38.31
2023-11-20T01:43:00,mcc,31.88
2023-11-20T01:44:00,mcc,33.71
2023-11-20T01:45:00,mcc,33.38
2023-11-20T01:46:00,mcc,33.45
2023-11-20T01:47:00,mcc,34.08
2023-11-20T01:48:00,mcc,35.54
2023-11-20T01:49:00,mcc,31.50
2023-11-20T01:50:00,mcc,41.85
2023-11-20T01:51:00,mcc,39.89
2023-11-20T01:52:00,mcc,40.63
2023-11-20T01:53:00,mcc,40.67
2023-11-20T01:54:00,mcc,34.22
2023-11-20T01:55:00,mcc,33.89
2023-11-20T01:56:00,mcc,33.87
2023-11-20T01:57:00,mcc,32.55
2023-11-20T01:58:00,mcc,31.32
2023-11-20T01:59:00,mcc,33.48
2023-11-20T02:00:00,mcc,34.94
2023-11-20T02:01:00,mcc,44.89
2023-11-20T02:02:00,mcc,37.63
2023-11-20T02:03:00,mcc,32.33
2023-11-20T02:04:00,mcc,31.39
2023-11-20T02:05:00,mcc,33.02
2023-11-20T02:06:00,mcc,31.31
2023-11-20T02:07:00,mcc,31.77
2023-11-20T02:08:00,mcc,36.14
2023-11-20T02:09:00,mcc,44.74
2023-11-20T02:10:00,mcc,43.51
2023-11-20T02:11:00,mcc,45.09
2023-11-20T02:12:00,mcc,42.32
2023-11-20T02:13:00,mcc,33.57
2023-11-20T02:14:00,mcc,34.83
2023-11-20T02:15:00,mcc,33.15
2023-11-20T02:16:00,mcc,33.86
2023-11-20T02:17:00,mcc,34.14
2023-11-20T02:18:00,mcc,32.24
2023-11-20T02:19:00,mcc,31.36
2023-11-20T02:20:00,mcc,34.91
2023-11-20T02:21:00,mcc,42.35
2023-11-20T02:22:00,mcc,31.80
2023-11-20T02:23:00,mcc,35.49
2023-11-20T02:24:00,mcc,33.96
2023-11-20T02:25:00,mcc,33.50
2023-11-20T02:26:00,mcc,37.03
2023-11-20T02:27:00,mcc,35.68
2023-11-20T02:28:00,mcc,32.49
2023-11-20T02:29:00,mcc,36.47
2023-11-20T02:30:00,mcc,35.40
2023-11-20T02:31:00,mcc,33.46
2023-11-20T02:32:00,mcc,35.83
2023-11-20T02:33:00,mcc,32.94
2023-11-20T02:34:00,mcc,32.98
2023-11-20T02:35:00,mcc,33.55
2023-11-20T02:36:00,mcc,31.65
2023-11-20T02:37:00,mcc,32.27
2023-11-20T02:38:00,mcc,35.14
2023-11-20T02:39:00,mcc,33.64
2023-11-20T02:40:00,mcc,32.51
2023-11-20T02:41:00,mcc,34.72
2023-11-20T02:42:00,mcc,32.46
2023-11-20T02:43:00,mcc,34.03
2023-11-20T02:44:00,mcc,34.58
2023-11-20T02:45:00,mcc,33.05
2023-11-20T02:46:00,mcc,32.75
2023-11-20T02:47:00,mcc,35.18
2023-11-20T02:48:00,mcc,32.48
2023-11-20T02:49:00,mcc,31.27
2023-11-20T02:50:00,mcc,34.00
2023-11-20T02:51:00,mcc,34.30
2023-11-20T02:52:00,mcc,35.66
2023-11-20T02:53:00,mcc,36.10
2023-11-20T02:54:00,mcc,33.80
2023-11-20T02:55:00,mcc,34.65
2023-11-20T02:56:00,mcc,34.12
2023-11-20T02:57:00,mcc,31.75
2023-11-20T02:58:00,mcc,29.80
2023-11-20T02:59:00,mcc,32.09
2023-11-20T03:00:00,mcc,30.18
2023-11-20T03:01:00,mcc,30.75
2023-11-20T03:02:00,mcc,35.13
2023-11-20T03:03:00,mcc,31.72
2023-11-20T03:04:00,mcc,29.99
2023-11-20T03:05:00,mcc,46.74
2023-11-20T03:06:00,mcc,46.68
2023-11-20T03:07:00,mcc,32.64
2023-11-20T03:08:00,mcc,35.82
2023-11-20T03:09:00,mcc,34.56
2023-11-20T03:10:00,mcc,33.12
2023-11-20T03:11:00,mcc,32.78
2023-11-20T03:12:00,mcc,30.87
2023-11-20T03:13:00,mcc,30.16
2023-11-20T03:14:00,mcc,32.78
2023-11-20T03:15:00,mcc,31.83
2023-11-20T03:16:00,mcc,34.56
2023-11-20T03:17:00,mcc,34.31
2023-11-20T03:18:00,mcc,34.15
2023-11-20T03:19:00,mcc,33.39
2023-11-20T03:20:00,mcc,44.61
2023-11-20T03:21:00,mcc,33.85
2023-11-20T03:22:00,mcc,33.73
2023-11-20T03:23:00,mcc,37.07
2023-11-20T03:24:00,mcc,35.63
2023-11-20T03:25:00,mcc,35.41
2023-11-20T03:26:00,mcc,33.98
2023-11-20T03:27:00,mcc,32.33
2023-11-20T03:28:00,mcc,30.61
2023-11-20T03:29:00,mcc,33.24
2023-11-20T03:30:00,mcc,33.95
2023-11-20T03:31:00,mcc,30.74
2023-11-20T03:32:00,mcc,33.94
2023-11-20T03:33:00,mcc,33.12
2023-11-20T03:34:00,mcc,31.19
2023-11-20T03:35:00,mcc,33.81
2023-11-20T03:36:00,mcc,34.07
2023-11-20T03:37:00,mcc,32.75
2023-11-20T03:38:00,mcc,33.45
2023-11-20T03:39:00,mcc,35.87
2023-11-20T03:40:00,mcc,33.33
2023-11-20T03:41:00,mcc,34.22
2023-11-20T03:42:00,mcc,33.23
2023-11-20T03:43:00,mcc,31.89
2023-11-20T03:44:00,mcc,34.39
2023-11-20T03:45:00,mcc,36.22
2023-11-20T03:46:00,mcc,34.63
2023-11-20T03:47:00,mcc,36.17
2023-11-20T03:48:00,mcc,37.72
2023-11-20T03:49:00,mcc,47.18
2023-11-20T03:50:00,mcc,33.53
2023-11-20T03:51:00,mcc,34.16
2023-11-20T03:52:00,mcc,33.51
2023-11-20T03:53:00,mcc,33.24
2023-11-20T03:54:00,mcc,34.17
2023-11-20T03:55:00,mcc,34.52
2023-11-20T03:56:00,mcc,36.03
2023-11-20T03:57:00,mcc,37.62
2023-11-20T03:58:00,mcc,34.88
2023-11-20T03:59:00,mcc,34.20
2023-11-20T04:00:00,mcc,43.06
2023-11-20T04:01:00,mcc,30.09
2023-11-20T04:02:00,mcc,32.47
2023-11-20T04:03:00,mcc,33.76
2023-11-20T04:04:00,mcc,30.95
2023-11-20T04:05:00,mcc,30.91
2023-11-20T04:06:00,mcc,35.30
2023-11-20T04:07:00,mcc,34.31
2023-11-20T04:08:00,mcc,33.32
2023-11-20T04:09:00,mcc,37.85
2023-11-20T04:10:00,mcc,34.45
2023-11-20T04:11:00,mcc,34.09
2023-11-20T04:12:00,mcc,35.64
2023-11-20T04:13:00,mcc,32.49
2023-11-20T04:14:00,mcc,31.60
2023-11-20T04:15:00,mcc,34.32
2023-11-20T04:16:00,mcc,34.74
2023-11-20T04:17:00,mcc,33.05
2023-11-20T04:18:00,mcc,35.69
2023-11-20T04:19:00,mcc,40.88
2023-11-20T04:20:00,mcc,32.53
2023-11-20T04:21:00,mcc,30.89
2023-11-20T04:22:00,mcc,30.37
2023-11-20T04:23:00,mcc,29.15
2023-11-20T04:24:00,mcc,32.75
2023-11-20T04:25:00,mcc,34.81
2023-11-20T04:26:00,mcc,34.46
2023-11-20T04:27:00,mcc,37.69
2023-11-20T04:28:00,mcc,31.26
2023-11-20T04:29:00,mcc,31.45
2023-11-20T04:30:00,mcc,33.06
2023-11-20T04:31:00,mcc,30.72
2023-11-20T04:32:00,mcc,45.28
2023-11-20T04:33:00,mcc,45.36
2023-11-20T04:34:00,mcc,32.47
2023-11-20T04:35:00,mcc,32.78
2023-11-20T04:36:00,mcc,35.13
2023-11-20T04:37:00,mcc,33.17
2023-11-20T04:38:00,mcc,39.79
2023-11-20T04:39:00,mcc,30.36
2023-11-20T04:40:00,mcc,33.26
2023-11-20T04:41:00,mcc,31.48
2023-11-20T04:42:00,mcc,33.97
2023-11-20T04:43:00,mcc,32.18
2023-11-20T04:44:00,mcc,32.39
2023-11-20T04:45:00,mcc,34.16
2023-11-20T04:46:00,mcc,33.35
2023-11-20T04:47:00,mcc,32.22
2023-11-20T04:48:00,mcc,38.36
2023-11-20T04:49:00,mcc,35.35
2023-11-20T04:50:00,mcc,34.44
2023-11-20T04:51:00,mcc,31.74
2023-11-20T04:52:00,mcc,32.05
2023-11-20T04:53:00,mcc,33.89
2023-11-20T04:54:00,mcc,34.22
2023-11-20T04:55:00,mcc,36.31
2023-11-20T04:56:00,mcc,33.00
2023-11-20T04:57:00,mcc,40.97
2023-11-20T04:58:00,mcc,31.44
2023-11-20T04:59:00,mcc,32.85
2023-11-20T05:00:00,mcc,32.21
2023-11-20T05:01:00,mcc,30.42
2023-11-20T05:02:00,mcc,30.15
2023-11-20T05:03:00,mcc,32.34
2023-11-20T05:04:00,mcc,32.61
2023-11-20T05:05:00,mcc,31.98
2023-11-20T05:06:00,mcc,34.80
2023-11-20T05:07:00,mcc,33.25
2023-11-20T05:08:00,mcc,35.30
2023-11-20T05:09:00,mcc,36.36
2023-11-20T05:10:00,mcc,34.09
2023-11-20T05:11:00,mcc,36.53
2023-11-20T05:12:00,mcc,37.94
2023-11-20T05:13:00,mcc,34.57
2023-11-20T05:14:00,mcc,34.04
2023-11-20T05:15:00,mcc,32.28
2023-11-20T05:16:00,mcc,41.50
2023-11-20T05:17:00,mcc,43.55
2023-11-20T05:18:00,mcc,33.21
2023-11-20T05:19:00,mcc,32.41
2023-11-20T05:20:00,mcc,33.73
2023-11-20T05:21:00,mcc,32.36
2023-11-20T05:22:00,mcc,31.91
2023-11-20T05:23:00,mcc,32.48
2023-11-20T05:24:00,mcc,33.17
2023-11-20T05:25:00,mcc,34.48
2023-11-20T05:26:00,mcc,34.48
2023-11-20T05:27:00,mcc,35.73
2023-11-20T05:28:00,mcc,34.54
2023-11-20T05:29:00,mcc,35.34
2023-11-20T05:30:00,mcc,35.76
2023-11-20T05:31:00,mcc,35.41
2023-11-20T05:32:00,mcc,34.52
2023-11-20T05:33:00,mcc,34.10
2023-11-20T05:34:00,mcc,35.12
2023-11-20T05:35:00,mcc,35.35
2023-11-20T05:36:00,mcc,45.63
2023-11-20T05:37:00,mcc,38.51
2023-11-20T05:38:00,mcc,35.30
2023-11-20T05:39:00,mcc,35.38
2023-11-20T05:40:00,mcc,35.62
2023-11-20T05:41:00,mcc,35.58
2023-11-20T05:42:00,mcc,36.07
2023-11-20T05:43:00,mcc,31.78
2023-11-20T05:44:00,mcc,32.90
2023-11-20T05:45:00,mcc,32.96
2023-11-20T05:46:00,mcc,31.00
2023-11-20T05:47:00,mcc,29.34
2023-11-20T05:48:00,mcc,34.27
2023-11-20T05:49:00,mcc,32.42
2023-11-20T05:50:00,mcc,34.46
2023-11-20T05:51:00,mcc,44.99
2023-11-20T05:52:00,mcc,44.53
2023-11-20T05:53:00,mcc,44.56
2023-11-20T05:54:00,mcc,45.98
2023-11-20T05:55:00,mcc,45.90
2023-11-20T05:56:00,mcc,34.91
2023-11-20T05:57:00,mcc,35.84
2023-11-20T05:58:00,mcc,34.19
2023-11-20T05:59:00,mcc,34.04
2023-11-20T06:00:00,mcc,48.23
2023-11-20T06:01:00,mcc,37.89
2023-11-20T06:02:00,mcc,46.57
2023-11-20T06:03:00,mcc,46.74
2023-11-20T06:04:00,mcc,46.06
2023-11-20T06:05:00,mcc,46.42
2023-11-20T06:06:00,mcc,42.81
2023-11-20T06:07:00,mcc,41.04
2023-11-20T06:08:00,mcc,42.72
2023-11-20T06:09:00,mcc,47.00
2023-11-20T06:10:00,mcc,42.44
2023-11-20T06:11:00,mcc,38.42
2023-11-20T06:12:00,mcc,39.58
2023-11-20T06:13:00,mcc,41.24
2023-11-20T06:14:00,mcc,45.26
2023-11-20T06:15:00,mcc,40.91
2023-11-20T06:16:00,mcc,38.36
2023-11-20T06:17:00,mcc,37.74
2023-11-20T06:18:00,mcc,40.38
2023-11-20T06:19:00,mcc,40.40
2023-11-20T06:20:00,mcc,40.32
2023-11-20T06:21:00,mcc,41.86
2023-11-20T06:22:00,mcc,40.21
2023-11-20T06:23:00,mcc,38.36
2023-11-20T06:24:00,mcc,41.13
2023-11-20T06:25:00,mcc,38.70
2023-11-20T06:26:00,mcc,37.51
2023-11-20T06:27:00,mcc,40.17
2023-11-20T06:28:00,mcc,40.02
2023-11-20T06:29:00,mcc,40.43
2023-11-20T06:30:00,mcc,40.91
2023-11-20T06:31:00,mcc,37.90
2023-11-20T06:32:00,mcc,38.86
2023-11-20T06:33:00,mcc,41.65
2023-11-20T06:34:00,mcc,38.93
2023-11-20T06:35:00,mcc,38.68
2023-11-20T06:36:00,mcc,41.36
2023-11-20T06:37:00,mcc,40.52
2023-11-20T06:38:00,mcc,48.40
2023-11-20T06:39:00,mcc,49.49
2023-11-20T06:40:00,mcc,59.39
2023-11-20T06:41:00,mcc,49.99
2023-11-20T06:42:00,mcc,55.46
2023-11-20T06:43:00,mcc,52.81
2023-11-20T06:44:00,mcc,54.80
2023-11-20T06:45:00,mcc,53.84
2023-11-20T06:46:00,mcc,50.20
2023-11-20T06:47:00,mcc,46.57
2023-11-20T06:48:00,mcc,50.49
2023-11-20T06:49:00,mcc,45.47
2023-11-20T06:50:00,mcc,44.87
2023-11-20T06:51:00,mcc,46.81
2023-11-20T06:52:00,mcc,71.68
2023-11-20T06:53:00,mcc,47.35
2023-11-20T06:54:00,mcc,47.54
2023-11-20T06:55:00,mcc,53.81
2023-11-20T06:56:00,mcc,41.29
2023-11-20T06:57:00,mcc,43.81
2023-11-20T06:58:00,mcc,43.15
2023-11-20T06:59:00,mcc,43.20
2023-11-20T07:00:00,mcc,42.84
2023-11-20T07:01:00,mcc,47.93
2023-11-20T07:02:00,mcc,46.44
2023-11-20T07:03:00,mcc,44.60
2023-11-20T07:04:00,mcc,44.05
2023-11-20T07:05:00,mcc,44.32
2023-11-20T07:06:00,mcc,55.81
2023-11-20T07:07:00,mcc,46.17
2023-11-20T07:08:00,mcc,45.34
2023-11-20T07:09:00,mcc,50.56
2023-11-20T07:10:00,mcc,45.48
2023-11-20T07:11:00,mcc,64.79
2023-11-20T07:12:00,mcc,47.99
2023-11-20T07:13:00,mcc,55.15
2023-11-20T07:14:00,mcc,47.53
2023-11-20T07:15:00,mcc,50.95
2023-11-20T07:16:00,mcc,66.05
2023-11-20T07:17:00,mcc,46.58
2023-11-20T07:18:00,mcc,51.03
2023-11-20T07:19:00,mcc,55.85
2023-11-20T07:20:00,mcc,63.63
2023-11-20T07:21:00,mcc,50.31
2023-11-20T07:22:00,mcc,50.70
2023-11-20T07:23:00,mcc,54.91
2023-11-20T07:24:00,mcc,56.99
2023-11-20T07:25:00,mcc,52.05
2023-11-20T07:26:00,mcc,53.39
2023-11-20T07:27:00,mcc,50.67
2023-11-20T07:28:00,mcc,49.75
2023-11-20T07:29:00,mcc,47.55
2023-11-20T07:30:00,mcc,56.97
2023-11-20T07:31:00,mcc,47.34
2023-11-20T07:32:00,mcc,50.20
2023-11-20T07:33:00,mcc,48.57
2023-11-20T07:34:00,mcc,47.57
2023-11-20T07:35:00,mcc,50.51
2023-11-20T07:36:00,mcc,49.10
2023-11-20T07:37:00,mcc,56.35
2023-11-20T07:38:00,mcc,63.10
2023-11-20T07:39:00,mcc,59.58
2023-11-20T07:40:00,mcc,55.17
2023-11-20T07:41:00,mcc,55.72
2023-11-20T07:42:00,mcc,49.38
2023-11-20T07:43:00,mcc,59.45
2023-11-20T07:44:00,mcc,58.11
2023-11-20T07:45:00,mcc,55.46
2023-11-20T07:46:00,mcc,54.12
2023-11-20T07:47:00,mcc,54.98
2023-11-20T07:48:00,mcc,63.87
2023-11-20T07:49:00,mcc,53.46
2023-11-20T07:50:00,mcc,51.57
2023-11-20T07:51:00,mcc,51.18
2023-11-20T07:52:00,mcc,52.48
2023-11-20T07:53:00,mcc,56.84
2023-11-20T07:54:00,mcc,54.86
2023-11-20T07:55:00,mcc,55.98
2023-11-20T07:56:00,mcc,51.48
2023-11-20T07:57:00,mcc,51.60
2023-11-20T07:58:00,mcc,64.69
2023-11-20T07:59:00,mcc,64.55
2023-11-20T08:00:00,mcc,50.26
2023-11-20T08:01:00,mcc,53.94
2023-11-20T08:02:00,mcc,52.37
2023-11-20T08:03:00,mcc,62.18
2023-11-20T08:04:00,mcc,70.42
2023-11-20T08:05:00,mcc,52.55
2023-11-20T08:06:00,mcc,52.70
2023-11-20T08:07:00,mcc,56.26
2023-11-20T08:08:00,mcc,61.57
2023-11-20T08:09:00,mcc,63.35
2023-11-20T08:10:00,mcc,56.89
2023-11-20T08:11:00,mcc,55.67
2023-11-20T08:12:00,mcc,53.59
2023-11-20T08:13:00,mcc,51.48
2023-11-20T08:14:00,mcc,52.39
2023-11-20T08:15:00,mcc,51.44
2023-11-20T08:16:00,mcc,51.20
2023-11-20T08:17:00,mcc,59.54
2023-11-20T08:18:00,mcc,51.75
2023-11-20T08:19:00,mcc,53.69
2023-11-20T08:20:00,mcc,52.58
2023-11-20T08:21:00,mcc,54.31
2023-11-20T08:22:00,mcc,62.12
2023-11-20T08:23:00,mcc,67.73
2023-11-20T08:24:00,mcc,51.91
2023-11-20T08:25:00,mcc,50.19
2023-11-20T08:26:00,mcc,64.09
2023-11-20T08:27:00,mcc,52.04
2023-11-20T08:28:00,mcc,52.29
2023-11-20T08:29:00,mcc,54.33
2023-11-20T08:30:00,mcc,53.79
2023-11-20T08:31:00,mcc,51.89
2023-11-20T08:32:00,mcc,51.46
2023-11-20T08:33:00,mcc,55.77
2023-11-20T08:34:00,mcc,55.30
2023-11-20T08:35:00,mcc,56.84
2023-11-20T08:36:00,mcc,56.57
2023-11-20T08:37:00,mcc,62.15
2023-11-20T08:38:00,mcc,55.84
2023-11-20T08:39:00,mcc,52.92
2023-11-20T08:40:00,mcc,51.02
2023-11-20T08:41:00,mcc,53.57
2023-11-20T08:42:00,mcc,61.22
2023-11-20T08:43:00,mcc,53.61
2023-11-20T08:44:00,mcc,52.81
2023-11-20T08:45:00,mcc,55.20
2023-11-20T08:46:00,mcc,52.94
2023-11-20T08:47:00,mcc,58.69
2023-11-20T08:48:00,mcc,53.36
2023-11-20T08:49:00,mcc,51.32
2023-11-20T08:50:00,mcc,51.05
2023-11-20T08:51:00,mcc,57.26
2023-11-20T08:52:00,mcc,61.15
2023-11-20T08:53:00,mcc,51.45
2023-11-20T08:54:00,mcc,55.94
2023-11-20T08:55:00,mcc,54.01
2023-11-20T08:56:00,mcc,53.00
2023-11-20T08:57:00,mcc,65.62
2023-11-20T08:58:00,mcc,73.73
2023-11-20T08:59:00,mcc,58.48
2023-11-20T09:00:00,mcc,56.78
2023-11-20T09:01:00,mcc,57.10
2023-11-20T09:02:00,mcc,65.10
2023-11-20T09:03:00,mcc,57.95
2023-11-20T09:04:00,mcc,54.50
2023-11-20T09:05:00,mcc,55.57
2023-11-20T09:06:00,mcc,61.59
2023-11-20T09:07:00,mcc,53.75
2023-11-20T09:08:00,mcc,53.76
2023-11-20T09:09:00,mcc,55.76
2023-11-20T09:10:00,mcc,53.32
2023-11-20T09:11:00,mcc,51.29
2023-11-20T09:12:00,mcc,52.23
2023-11-20T09:13:00,mcc,60.76
2023-11-20T09:14:00,mcc,61.06
2023-11-20T09:15:00,mcc,60.93
2023-11-20T09:16:00,mcc,72.03
2023-11-20T09:17:00,mcc,70.92
2023-11-20T09:18:00,mcc,56.42
2023-11-20T09:19:00,mcc,76.08
2023-11-20T09:20:00,mcc,55.81
2023-11-20T09:21:00,mcc,58.18
2023-11-20T09:22:00,mcc,57.98
2023-11-20T09:23:00,mcc,58.62
2023-11-20T09:24:00,mcc,58.97
2023-11-20T09:25:00,mcc,67.66
2023-11-20T09:26:00,mcc,74.60
2023-11-20T09:27:00,mcc,58.73
2023-11-20T09:28:00,mcc,70.20
2023-11-20T09:29:00,mcc,56.01
2023-11-20T09:30:00,mcc,56.01
2023-11-20T09:31:00,mcc,66.76
2023-11-20T09:32:00,mcc,59.77
2023-11-20T09:33:00,mcc,56.32
2023-11-20T09:34:00,mcc,61.57
2023-11-20T09:35:00,mcc,59.22
2023-11-20T09:36:00,mcc,63.27
2023-11-20T09:37:00,mcc,58.74
2023-11-20T09:38:00,mcc,55.76
2023-11-20T09:39:00,mcc,54.58
2023-11-20T09:40:00,mcc,53.15
2023-11-20T09:41:00,mcc,65.00
2023-11-20T09:42:00,mcc,55.05
2023-11-20T09:43:00,mcc,55.44
2023-11-20T09:44:00,mcc,57.24
2023-11-20T09:45:00,mcc,66.02
2023-11-20T09:46:00,mcc,67.57
2023-11-20T09:47:00,mcc,59.41
2023-11-20T09:48:00,mcc,58.13
2023-11-20T09:49:00,mcc,54.53
2023-11-20T09:50:00,mcc,65.24
2023-11-20T09:51:00,mcc,70.42
2023-11-20T09:52:00,mcc,61.09
2023-11-20T09:53:00,mcc,64.27
2023-11-20T09:54:00,mcc,53.95
2023-11-20T09:55:00,mcc,55.08
2023-11-20T09:56:00,mcc,67.08
2023-11-20T09:57:00,mcc,56.71
2023-11-20T09:58:00,mcc,56.92
2023-11-20T09:59:00,mcc,70.76
2023-11-20T10:00:00,mcc,70.00
2023-11-20T10:01:00,mcc,66.07
2023-11-20T10:02:00,mcc,54.16
2023-11-20T10:03:00,mcc,55.90
2023-11-20T10:04:00,mcc,60.48
2023-11-20T10:05:00,mcc,58.00
2023-11-20T10:06:00,mcc,66.43
2023-11-20T10:07:00,mcc,55.77
2023-11-20T10:08:00,mcc,54.81
2023-11-20T10:09:00,mcc,55.84
2023-11-20T10:10:00,mcc,53.94
2023-11-20T10:11:00,mcc,61.20
2023-11-20T10:12:00,mcc,54.80
2023-11-20T10:13:00,mcc,51.42
2023-11-20T10:14:00,mcc,51.86
2023-11-20T10:15:00,mcc,53.55
2023-11-20T10:16:00,mcc,50.52
2023-11-20T10:17:00,mcc,52.91
2023-11-20T10:18:00,mcc,54.69
2023-11-20T10:19:00,mcc,52.97
2023-11-20T10:20:00,mcc,52.91
2023-11-20T10:21:00,mcc,55.40
2023-11-20T10:22:00,mcc,54.28
2023-11-20T10:23:00,mcc,56.98
2023-11-20T10:24:00,mcc,58.87
2023-11-20T10:25:00,mcc,59.59
2023-11-20T10:26:00,mcc,66.12
2023-11-20T10:27:00,mcc,60.52
2023-11-20T10:28:00,mcc,54.57
2023-11-20T10:29:00,mcc,57.96
2023-11-20T10:30:00,mcc,66.09
2023-11-20T10:31:00,mcc,67.99
2023-11-20T10:32:00,mcc,58.38
2023-11-20T10:33:00,mcc,60.31
2023-11-20T10:34:00,mcc,59.59
2023-11-20T10:35:00,mcc,57.91
2023-11-20T10:36:00,mcc,71.03
2023-11-20T10:37:00,mcc,59.33
2023-11-20T10:38:00,mcc,55.69
2023-11-20T10:39:00,mcc,54.99
2023-11-20T10:40:00,mcc,62.59
2023-11-20T10:41:00,mcc,55.93
2023-11-20T10:42:00,mcc,55.22
2023-11-20T10:43:00,mcc,66.48
2023-11-20T10:44:00,mcc,57.22
2023-11-20T10:45:00,mcc,65.20
2023-11-20T10:46:00,mcc,58.43
2023-11-20T10:47:00,mcc,55.99
2023-11-20T10:48:00,mcc,54.53
2023-11-20T10:49:00,mcc,57.32
2023-11-20T10:50:00,mcc,53.70
2023-11-20T10:51:00,mcc,53.65
2023-11-20T10:52:00,mcc,57.74
2023-11-20T10:53:00,mcc,57.33
2023-11-20T10:54:00,mcc,56.60
2023-11-20T10:55:00,mcc,57.13
2023-11-20T10:56:00,mcc,59.12
2023-11-20T10:57:00,mcc,57.81
2023-11-20T10:58:00,mcc,55.65
2023-11-20T10:59:00,mcc,61.17
2023-11-20T11:00:00,mcc,63.17
2023-11-20T11:01:00,mcc,64.05
2023-11-20T11:02:00,mcc,69.05
2023-11-20T11:03:00,mcc,62.61
2023-11-20T11:04:00,mcc,55.13
2023-11-20T11:05:00,mcc,54.67
2023-11-20T11:06:00,mcc,56.21
2023-11-20T11:07:00,mcc,65.92
2023-11-20T11:08:00,mcc,54.63
2023-11-20T11:09:00,mcc,54.63
2023-11-20T11:10:00,mcc,54.00
2023-11-20T11:11:00,mcc,52.50
2023-11-20T11:12:00,mcc,52.92
2023-11-20T11:13:00,mcc,53.27
2023-11-20T11:14:00,mcc,65.36
2023-11-20T11:15:00,mcc,55.36
2023-11-20T11:16:00,mcc,57.59
2023-11-20T11:17:00,mcc,55.36
2023-11-20T11:18:00,mcc,54.94
2023-11-20T11:19:00,mcc,55.85
2023-11-20T11:20:00,mcc,57.66
2023-11-20T11:21:00,mcc,72.06
2023-11-20T11:22:00,mcc,55.29
2023-11-20T11:23:00,mcc,58.06
2023-11-20T11:24:00,mcc,56.97
2023-11-20T11:25:00,mcc,57.43
2023-11-20T11:26:00,mcc,54.48
2023-11-20T11:27:00,mcc,56.42
2023-11-20T11:28:00,mcc,55.45
2023-11-20T11:29:00,mcc,58.58
2023-11-20T11:30:00,mcc,69.15
2023-11-20T11:31:00,mcc,68.90
2023-11-20T11:32:00,mcc,65.10
2023-11-20T11:33:00,mcc,54.70
2023-11-20T11:34:00,mcc,53.69
2023-11-20T11:35:00,mcc,54.30
2023-11-20T11:36:00,mcc,63.53
2023-11-20T11:37:00,mcc,53.76
2023-11-20T11:38:00,mcc,59.66
2023-11-20T11:39:00,mcc,56.96
2023-11-20T11:40:00,mcc,61.64
2023-11-20T11:41:00,mcc,63.37
2023-11-20T11:42:00,mcc,57.71
2023-11-20T11:43:00,mcc,59.19
2023-11-20T11:44:00,mcc,59.62
2023-11-20T11:45:00,mcc,58.11
2023-11-20T11:46:00,mcc,55.91
2023-11-20T11:47:00,mcc,59.42
2023-11-20T11:48:00,mcc,56.53
2023-11-20T11:49:00,mcc,56.36
2023-11-20T11:50:00,mcc,55.56
2023-11-20T11:51:00,mcc,64.80
2023-11-20T11:52:00,mcc,54.16
2023-11-20T11:53:00,mcc,55.70
2023-11-20T11:54:00,mcc,53.88
2023-11-20T11:55:00,mcc,54.59
2023-11-20T11:56:00,mcc,64.98
2023-11-20T11:57:00,mcc,57.54
2023-11-20T11:58:00,mcc,68.97
2023-11-20T11:59:00,mcc,63.50
2023-11-20T12:00:00,mcc,58.14
2023-11-20T12:01:00,mcc,64.90
2023-11-20T12:02:00,mcc,57.77
2023-11-20T12:03:00,mcc,57.78
2023-11-20T12:04:00,mcc,60.77
2023-11-20T12:05:00,mcc,58.39
2023-11-20T12:06:00,mcc,63.41
2023-11-20T12:07:00,mcc,57.34
2023-11-20T12:08:00,mcc,56.15
2023-11-20T12:09:00,mcc,57.44
2023-11-20T12:10:00,mcc,56.61
2023-11-20T12:11:00,mcc,69.27
2023-11-20T12:12:00,mcc,58.54
2023-11-20T12:13:00,mcc,57.55
2023-11-20T12:14:00,mcc,56.98
2023-11-20T12:15:00,mcc,54.29
2023-11-20T12:16:00,mcc,61.26
2023-11-20T12:17:00,mcc,52.70
2023-11-20T12:18:00,mcc,53.93
2023-11-20T12:19:00,mcc,61.83
2023-11-20T12:20:00,mcc,56.19
2023-11-20T12:21:00,mcc,64.80
2023-11-20T12:22:00,mcc,54.08
2023-11-20T12:23:00,mcc,52.64
2023-11-20T12:24:00,mcc,71.22
2023-11-20T12:25:00,mcc,70.64
2023-11-20T12:26:00,mcc,64.59
2023-11-20T12:27:00,mcc,59.19
2023-11-20T12:28:00,mcc,57.02
2023-11-20T12:29:00,mcc,54.75
2023-11-20T12:30:00,mcc,52.67
2023-11-20T12:31:00,mcc,60.03
2023-11-20T12:32:00,mcc,57.59
2023-11-20T12:33:00,mcc,57.68
2023-11-20T12:34:00,mcc,58.76
2023-11-20T12:35:00,mcc,58.98
2023-11-20T12:36:00,mcc,68.27
2023-11-20T12:37:00,mcc,55.97
2023-11-20T12:38:00,mcc,53.72
2023-11-20T12:39:00,mcc,56.64
2023-11-20T12:40:00,mcc,54.67
2023-11-20T12:41:00,mcc,55.01
2023-11-20T12:42:00,mcc,54.97
2023-11-20T12:43:00,mcc,51.41
2023-11-20T12:44:00,mcc,50.22
2023-11-20T12:45:00,mcc,62.38
2023-11-20T12:46:00,mcc,56.01
2023-11-20T12:47:00,mcc,53.01
2023-11-20T12:48:00,mcc,54.80
2023-11-20T12:49:00,mcc,55.84
2023-11-20T12:50:00,mcc,77.63
2023-11-20T12:51:00,mcc,62.20
2023-11-20T12:52:00,mcc,60.82
2023-11-20T12:53:00,mcc,62.88
2023-11-20T12:54:00,mcc,61.70
2023-11-20T12:55:00,mcc,64.67
2023-11-20T12:56:00,mcc,55.34
2023-11-20T12:57:00,mcc,55.19
2023-11-20T12:58:00,mcc,62.39
2023-11-20T12:59:00,mcc,54.10
2023-11-20T13:00:00,mcc,55.75
2023-11-20T13:01:00,mcc,59.45
2023-11-20T13:02:00,mcc,50.95
2023-11-20T13:03:00,mcc,53.64
2023-11-20T13:04:00,mcc,52.67
2023-11-20T13:05:00,mcc,60.76
2023-11-20T13:06:00,mcc,53.62
2023-11-20T13:07:00,mcc,50.01
2023-11-20T13:08:00,mcc,50.43
2023-11-20T13:09:00,mcc,48.90
2023-11-20T13:10:00,mcc,76.43
2023-11-20T13:11:00,mcc,51.77
2023-11-20T13:12:00,mcc,50.65
2023-11-20T13:13:00,mcc,53.31
2023-11-20T13:14:00,mcc,52.30
2023-11-20T13:15:00,mcc,51.55
2023-11-20T13:16:00,mcc,51.01
2023-11-20T13:17:00,mcc,57.88
2023-11-20T13:18:00,mcc,51.61